DateTimeUTC,F1_A11,F1_S11,BsB_S11,BsG_S11,BsR_S11,BbsB_S11,BbsG_S11,BbsR_S11,BaB_A11,BaG_A11,BaR_A11,Tu_S11,T_S11,Uu_S11,U_S11,P_S11,T1_A11
2021-08-21T23:00:00Z,00000200,20000000,,,,,,,-000.05,-000.07,0000.02,19.0,25.7,10.5,07.0,0678.3,31.0
2021-08-21T23:01:00Z,00000200,20000000,,,,,,,0000.30,0000.47,0000.14,19.0,25.7,10.5,07.0,0678.2,31.0
2021-08-21T23:02:00Z,00000200,20000000,,,,,,,0000.00,-000.06,0000.05,19.0,25.7,10.5,07.0,0678.2,31.0
2021-08-21T23:03:00Z,00000200,60000000,,,,,,,0000.48,0000.00,0000.44,19.0,25.7,10.5,07.0,0678.2,30.9
2021-08-21T23:04:00Z,00000200,40000000,0003.22,0002.09,0001.43,0000.48,0000.60,0000.06,0000.71,0000.95,0000.16,19.1,25.6,10.7,07.2,0679.2,31.0
2021-08-21T23:05:00Z,00000200,00000000,0002.58,0001.86,0001.42,0001.08,0000.24,0000.34,0000.51,0000.48,0000.82,19.2,25.5,10.7,07.3,0679.2,31.0
2021-08-21T23:06:00Z,00000200,00000000,0003.06,0002.36,0001.61,0000.55,0000.22,0000.40,0000.67,0000.85,0000.05,19.2,25.5,10.8,07.3,0679.2,31.0
2021-08-21T23:07:00Z,00000200,00000000,0003.58,0001.93,0001.56,0000.48,0000.44,0000.26,0000.71,0000.95,0001.06,19.2,25.5,10.8,07.3,0679.2,31.0
2021-08-21T23:08:00Z,00000200,00000000,0002.30,0002.11,0001.37,0000.76,0000.38,0000.14,0000.49,0000.32,0000.06,19.2,25.5,10.7,07.3,0679.2,31.0
2021-08-21T23:09:00Z,00000200,00000000,0001.61,0001.89,0001.46,0000.53,0000.51,0000.06,0000.56,0000.51,0000.39,19.2,25.5,10.8,07.4,0679.2,31.0
2021-08-21T23:10:00Z,00000200,00000000,0002.29,0002.03,0001.68,-000.15,0000.18,0000.22,0000.91,0000.70,0000.61,19.2,25.5,10.9,07.4,0679.2,31.0
2021-08-21T23:11:00Z,00000200,00000000,0002.32,0001.69,0001.92,0000.17,0000.53,0000.20,0000.27,0000.22,0000.58,19.2,25.5,10.9,07.4,0679.2,31.0
2021-08-21T23:12:00Z,00000200,00000000,0002.71,0001.80,0001.68,-000.67,0000.20,0000.46,0000.70,0000.34,0000.04,19.2,25.5,10.9,07.5,0679.2,31.0
2021-08-21T23:13:00Z,00000200,00000000,0002.78,0002.20,0001.60,0000.76,0000.49,0000.25,0000.94,0000.99,0000.77,19.2,25.5,10.8,07.4,0679.2,31.0
2021-08-21T23:14:00Z,00000200,00000000,0002.11,0001.76,0001.13,0000.51,0000.48,0000.25,0000.24,0000.40,0000.35,19.2,25.5,10.8,07.4,0679.2,31.0
2021-08-21T23:15:00Z,00000200,00000000,0002.03,0002.08,0001.68,0000.22,0000.45,0000.18,0000.93,0000.74,0000.61,19.2,25.5,10.9,07.5,0679.2,31.0
2021-08-21T23:16:00Z,00000200,00000000,0002.33,0002.14,0001.03,0000.12,0000.46,-000.18,0000.54,0000.45,0000.23,19.2,25.5,11.0,07.5,0679.2,31.0
2021-08-21T23:17:00Z,00000200,00000000,0002.57,0001.69,0001.22,0000.47,0000.12,0000.09,0000.66,0000.54,0000.60,19.2,25.5,10.9,07.4,0679.2,31.0
2021-08-21T23:18:00Z,00000200,00000000,0003.26,0001.80,0001.38,0000.07,0000.54,0000.08,0000.42,0000.45,0000.62,19.2,25.5,10.9,07.5,0679.2,31.0
2021-08-21T23:19:00Z,00000200,00000000,0001.77,0001.72,0001.53,0000.07,0000.35,0000.43,0000.54,0000.24,-000.11,19.2,25.5,10.9,07.5,0679.2,31.0
2021-08-21T23:20:00Z,00000200,00000000,0002.82,0002.21,0001.67,-000.02,0000.34,0000.16,0000.61,0000.89,0000.83,19.2,25.5,10.8,07.4,0679.2,31.0
2021-08-21T23:21:00Z,00000200,00000000,0003.39,0002.24,0001.59,0000.29,0000.27,0000.07,0000.04,0000.15,0000.07,19.2,25.5,10.9,07.4,0679.2,31.0
2021-08-21T23:22:00Z,00000200,00000000,0002.97,0002.15,0001.56,0000.18,0000.51,0000.54,0000.94,0000.75,0000.47,19.2,25.5,10.8,07.4,0679.2,31.0
2021-08-21T23:23:00Z,00000200,00000000,0002.84,0002.30,0001.99,0000.35,0000.45,0000.21,0000.73,0000.67,0000.62,19.2,25.5,10.9,07.4,0679.2,31.0
2021-08-21T23:24:00Z,00000200,00000000,0004.02,0002.45,0001.89,0000.81,0000.58,0000.17,0000.63,0000.79,0000.66,19.2,25.5,10.8,07.4,0679.2,31.0
2021-08-21T23:25:00Z,00000200,00000000,0003.37,0002.73,0002.06,0000.77,0000.28,0000.08,0000.61,0000.71,0000.46,19.2,25.4,10.9,07.4,0679.2,31.0
2021-08-21T23:26:00Z,00000200,00000000,0003.57,0002.37,0001.98,0000.78,0000.28,0000.45,0000.75,0000.71,0000.39,19.2,25.5,10.8,07.4,0679.2,31.0
2021-08-21T23:27:00Z,00000200,00000000,0002.23,0002.27,0001.64,0000.23,0000.46,0000.21,0000.58,0000.12,0000.89,19.2,25.5,10.8,07.4,0679.2,31.0
2021-08-21T23:28:00Z,00000200,00000000,0003.10,0002.85,0002.47,0000.26,0000.57,0000.53,0000.61,0000.91,0000.41,19.2,25.5,10.8,07.3,0679.2,30.9
2021-08-21T23:29:00Z,00000200,00000000,0004.52,0002.82,0002.00,0000.36,0000.36,0000.44,0000.86,0000.67,0000.78,19.2,25.4,10.5,07.2,0679.2,31.0
2021-08-21T23:30:00Z,00000200,00000000,0002.49,0002.25,0001.93,-000.18,0000.32,0000.33,0000.90,0000.98,0000.59,19.2,25.4,10.8,07.3,0679.2,31.0
2021-08-21T23:31:00Z,00000200,00000000,0001.99,0001.66,0001.38,0000.16,0000.27,0000.03,0001.06,0000.76,0000.19,19.2,25.5,10.9,07.5,0679.2,31.0
2021-08-21T23:32:00Z,00000200,00000000,0002.43,0001.95,0001.60,-000.10,0000.71,-000.01,0000.47,0000.31,0000.81,19.2,25.5,10.9,07.5,0679.2,31.0
2021-08-21T23:33:00Z,00000200,00000000,0002.42,0002.20,0001.65,-000.38,0000.55,-000.07,0000.67,0000.41,0000.06,19.2,25.4,10.9,07.4,0679.2,31.0
2021-08-21T23:34:00Z,00000200,00000000,0002.54,0001.89,0001.61,0000.88,0000.40,0000.29,0000.07,0000.91,0000.67,19.2,25.5,11.0,07.5,0679.2,31.0
2021-08-21T23:35:00Z,00000200,00000000,0002.45,0001.92,0001.70,0000.02,0000.40,0000.20,0001.00,0000.39,0000.43,19.2,25.4,11.0,07.5,0679.2,30.9
2021-08-21T23:36:00Z,00000200,00000000,0002.27,0002.09,0001.64,0000.04,0000.46,0000.33,0000.59,0000.44,0000.29,19.2,25.4,11.0,07.5,0679.2,31.0
2021-08-21T23:37:00Z,00000200,00000000,0002.60,0002.16,0001.64,0000.28,0000.26,0000.15,0000.34,0000.66,0000.66,19.2,25.4,10.9,07.5,0679.2,31.0
2021-08-21T23:38:00Z,00000200,00000000,0002.52,0002.88,0001.77,0000.61,0000.22,0000.12,0000.63,0000.57,0000.28,19.2,25.4,10.9,07.4,0679.2,31.0
2021-08-21T23:39:00Z,00000200,00000000,0003.15,0002.42,0002.08,0000.17,0000.34,0000.31,0000.68,0000.43,0000.42,19.2,25.4,10.8,07.4,0679.2,31.0
2021-08-21T23:40:00Z,00000200,00000000,0002.59,0002.84,0001.86,0000.45,0000.30,0000.11,0000.43,0000.51,0000.39,19.2,25.4,10.7,07.3,0679.2,31.0
2021-08-21T23:41:00Z,00000200,00000000,0002.84,0002.80,0001.95,-000.21,0000.28,0000.30,0000.99,0000.59,0000.58,19.2,25.4,10.6,07.3,0679.2,31.0
2021-08-21T23:42:00Z,00000200,00000000,0003.25,0002.97,0001.97,0000.31,0000.70,0000.09,0000.81,0000.63,0000.63,19.2,25.4,10.7,07.3,0679.2,31.0
2021-08-21T23:43:00Z,00000200,00000000,0003.40,0002.78,0002.04,0000.49,0000.55,0000.14,0000.51,0000.89,0000.55,19.2,25.4,10.6,07.2,0679.2,31.0
2021-08-21T23:44:00Z,00000200,00000000,0002.86,0003.02,0001.66,0000.57,0000.50,0000.29,0000.84,0000.87,0000.79,19.2,25.4,10.6,07.2,0679.2,31.0
2021-08-21T23:45:00Z,00000200,00000000,0002.45,0002.76,0002.13,0000.92,0000.36,-000.07,0000.75,0000.33,0000.22,19.2,25.4,10.6,07.2,0679.2,31.0
2021-08-21T23:46:00Z,00000200,00000000,0004.47,0002.79,0002.10,0000.30,0000.51,0000.09,0000.62,0000.84,0000.64,19.2,25.4,10.4,07.1,0679.1,31.0
2021-08-21T23:47:00Z,00000200,00000000,0003.87,0002.60,0002.34,-000.59,0000.01,0000.54,0000.93,0000.59,0000.36,19.2,25.4,10.2,07.0,0679.2,31.0
2021-08-21T23:48:00Z,00000200,00000000,0004.47,0003.40,0002.49,0000.53,0000.48,0000.45,0000.65,0000.54,0000.57,19.2,25.4,10.2,06.9,0679.2,30.9
2021-08-21T23:49:00Z,00000200,00000000,0003.58,0003.35,0002.14,0001.15,0000.34,0000.25,0000.70,0000.61,0000.74,19.2,25.4,10.1,06.9,0679.2,30.9
2021-08-21T23:50:00Z,00000200,00000000,0003.88,0003.28,0002.59,0000.61,0000.30,0000.04,0001.29,0001.38,0000.82,19.2,25.4,10.1,06.9,0679.2,30.9
2021-08-21T23:51:00Z,00000200,00000000,0003.09,0002.71,0002.07,0000.08,0000.45,0000.10,0000.81,0000.62,0000.37,19.2,25.4,10.2,07.0,0679.2,31.0
2021-08-21T23:52:00Z,00000200,00000000,0003.98,0002.54,0001.90,0000.46,0000.51,0000.34,0000.76,0001.06,0001.04,19.2,25.4,10.2,07.0,0679.2,31.0
2021-08-21T23:53:00Z,00000200,00000000,0003.35,0002.44,0001.81,-000.10,0000.48,0000.13,0000.59,0000.76,0000.62,19.2,25.4,10.4,07.1,0679.2,30.9
2021-08-21T23:54:00Z,00000200,00000000,0003.36,0002.51,0001.73,0000.43,0000.48,0000.32,0000.74,0000.53,0000.34,19.2,25.4,10.5,07.2,0679.2,30.9
2021-08-21T23:55:00Z,00000200,00000000,0003.87,0002.57,0001.96,-000.18,0000.98,0000.10,0001.16,0000.54,0000.39,19.2,25.4,10.4,07.1,0679.2,31.0
2021-08-21T23:56:00Z,00000200,00000000,0003.83,0002.72,0001.94,0000.63,0000.52,0000.28,0000.27,0000.47,0000.77,19.2,25.4,10.5,07.2,0679.2,31.0
2021-08-21T23:57:00Z,00000200,40000000,,,,,,,0000.72,0000.65,0000.26,19.2,25.4,10.2,07.0,0679.2,30.9
2021-08-21T23:58:00Z,00000200,60000000,,,,,,,-000.50,-000.02,0000.03,18.9,25.5,10.5,07.0,0678.3,30.9
2021-08-21T23:59:00Z,00000200,20000000,,,,,,,0000.22,-000.14,-000.09,18.9,25.6,10.5,07.0,0678.2,30.9
